TimeCST,TemperatureF,Dew PointF,Humidity,Sea Level PressureIn,VisibilityMPH,Wind Direction,Wind SpeedMPH,Gust SpeedMPH,PrecipitationIn,Events,Conditions,WindDirDegrees,DateUTC
12:55 AM,64.4,59.0,83,30.03,7.0,Calm,Calm,-,N/A,,Scattered Clouds,0,2012-11-03 06:55:00
1:45 AM,64.4,59.0,83,30.01,7.0,Calm,Calm,-,N/A,,Scattered Clouds,0,2012-11-03 07:45:00
2:42 AM,62.6,59.0,88,30.03,7.0,East,3.5,-,N/A,,Scattered Clouds,80,2012-11-03 08:42:00
3:41 AM,60.8,59.0,94,30.01,7.0,East,3.5,-,N/A,,Scattered Clouds,80,2012-11-03 09:41:00
4:48 AM,59.0,59.0,100,30.02,7.0,Calm,Calm,-,N/A,,Scattered Clouds,0,2012-11-03 10:48:00
5:51 AM,60.8,59.0,94,30.01,7.0,East,3.5,-,N/A,,Mostly Cloudy,100,2012-11-03 11:51:00
6:42 AM,62.6,62.6,100,30.05,7.0,Calm,Calm,-,N/A,,Mostly Cloudy,0,2012-11-03 12:42:00
7:45 AM,71.6,64.4,78,30.07,7.0,East,4.6,-,N/A,,Mostly Cloudy,80,2012-11-03 13:45:00
8:45 AM,75.2,66.2,73,30.11,7.0,ENE,3.5,-,N/A,,Mostly Cloudy,70,2012-11-03 14:45:00
9:40 AM,78.8,68.0,69,30.08,8.0,NE,9.2,-,N/A,,Mostly Cloudy,50,2012-11-03 15:40:00
10:40 AM,78.8,66.2,65,30.07,8.0,NE,13.8,-,N/A,,Mostly Cloudy,40,2012-11-03 16:40:00
11:49 AM,80.6,66.2,61,30.01,8.0,ENE,9.2,-,N/A,,Mostly Cloudy,60,2012-11-03 17:49:00
12:50 PM,80.6,66.2,61,30.03,8.0,ENE,9.2,-,N/A,,Mostly Cloudy,70,2012-11-03 18:50:00
1:43 PM,78.8,66.2,65,30.01,8.0,ENE,13.8,-,N/A,,Mostly Cloudy,70,2012-11-03 19:43:00
2:44 PM,78.8,68.0,69,30.02,8.0,NE,8.1,-,N/A,,Mostly Cloudy,50,2012-11-03 20:44:00
3:42 PM,77.0,66.2,69,30.00,8.0,ENE,10.4,-,N/A,,Scattered Clouds,60,2012-11-03 21:42:00
4:47 PM,75.2,66.2,73,30.01,8.0,ENE,5.8,-,N/A,,Scattered Clouds,70,2012-11-03 22:47:00
5:50 PM,71.6,64.4,78,29.99,8.0,East,4.6,-,N/A,,Scattered Clouds,90,2012-11-03 23:50:00
6:43 PM,69.8,62.6,78,30.03,7.0,East,4.6,-,N/A,,Scattered Clouds,90,2012-11-04 00:43:00
7:41 PM,68.0,62.6,83,30.05,7.0,East,4.6,-,N/A,,Scattered Clouds,90,2012-11-04 01:41:00
8:43 PM,66.2,62.6,88,30.07,7.0,East,4.6,-,N/A,,Partly Cloudy,90,2012-11-04 02:43:00
9:45 PM,64.4,60.8,88,30.05,7.0,Calm,Calm,-,N/A,,Partly Cloudy,0,2012-11-04 03:45:00
10:48 PM,62.6,60.8,94,30.05,7.0,Calm,Calm,-,N/A,,Partly Cloudy,0,2012-11-04 04:48:00
11:43 PM,62.6,60.8,94,30.01,7.0,Calm,Calm,-,N/A,,Clear,0,2012-11-04 05:43:00